OE5295 EDLT-EDLJ

Flight info

Callsign OE5295
Flight time N/A
Altitude
Route
Aircraft BR23

Departure

Time N/A
Airport Münster-Telgte Airfield (EDLT)

Arrival

Time 2026-04-30 20:35
Airport Detmold Airfield (EDLJ)
Time Latitude Longitude Altitude Speed Heading
2026-04-30 20:21 51.64202 8.57350 1891 ft 91 kts 301°
2026-04-30 20:21 51.64583 8.56524 1889 ft 93 kts 309°
2026-04-30 20:21 51.64997 8.55711 1898 ft 95 kts 308°
2026-04-30 20:22 51.65434 8.54867 1933 ft 98 kts 310°
2026-04-30 20:22 51.65869 8.54065 2057 ft 93 kts 309°
2026-04-30 20:22 51.66291 8.53286 2183 ft 92 kts 312°
2026-04-30 20:22 51.66880 8.53006 2301 ft 93 kts
2026-04-30 20:23 51.67524 8.53107 2430 ft 93 kts
2026-04-30 20:23 51.68171 8.53236 2560 ft 94 kts
2026-04-30 20:23 51.68759 8.53634 2678 ft 95 kts 34°
2026-04-30 20:23 51.69267 8.54312 2802 ft 95 kts 39°
2026-04-30 20:24 51.69758 8.55031 2904 ft 97 kts 41°
2026-04-30 20:24 51.70264 8.55789 2957 ft 102 kts 41°
2026-04-30 20:24 51.70789 8.56585 2980 ft 105 kts 41°
2026-04-30 20:24 51.71329 8.57404 2988 ft 107 kts 41°
2026-04-30 20:25 51.72448 8.59106 2996 ft 113 kts 42°
2026-04-30 20:25 51.73013 8.59961 2996 ft 113 kts 41°
2026-04-30 20:26 51.74164 8.61700 2995 ft 114 kts 41°
2026-04-30 20:26 51.75316 8.63442 2989 ft 113 kts 41°
2026-04-30 20:26 51.75891 8.64314 2987 ft 113 kts 42°
2026-04-30 20:27 51.77039 8.66052 2987 ft 113 kts 42°
2026-04-30 20:27 51.78181 8.67776 2989 ft 113 kts 42°
2026-04-30 20:28 51.79335 8.69515 2991 ft 114 kts 41°
2026-04-30 20:28 51.80491 8.71253 2991 ft 113 kts 41°
2026-04-30 20:29 51.81645 8.72991 2990 ft 113 kts 41°
2026-04-30 20:30 51.83364 8.75579 2989 ft 113 kts 41°
2026-04-30 20:30 51.85095 8.78160 2993 ft 113 kts 40°
2026-04-30 20:31 51.86875 8.80650 2992 ft 112 kts 38°
2026-04-30 20:32 51.89005 8.82095 2838 ft 119 kts 20°
2026-04-30 20:32 51.90515 8.83127 2700 ft 117 kts 22°
2026-04-30 20:33 51.91290 8.83676 2427 ft 120 kts 23°
2026-04-30 20:33 51.92731 8.84782 1819 ft 112 kts 23°
2026-04-30 20:33 51.93421 8.85344 1554 ft 109 kts 26°
2026-04-30 20:34 51.94059 8.87118 1190 ft 76 kts 84°
2026-04-30 20:34 51.94068 8.88620 942 ft 64 kts 90°
2026-04-30 20:35 51.94069 8.89330 769 ft 61 kts 88°
2026-04-30 20:35 51.94072 8.90002 650 ft 58 kts 91°
2026-04-30 20:35 51.94080 8.90703 628 ft 1 kts 129°
2026-04-30 20:36 51.94075 8.90657 628 ft 11 kts 268°
2026-04-30 20:36 51.94075 8.90465 627 ft 18 kts 274°
2026-04-30 20:36 51.94013 8.90184 634 ft 12 kts 179°
2026-04-30 20:37 51.93919 8.90205 628 ft 11 kts 168°
2026-04-30 20:37 51.93850 8.90236 631 ft 8 kts 163°
2026-04-30 20:37 51.93805 8.90248 628 ft 4 kts 215°
2026-04-30 20:37 51.93792 8.90231 632 ft 3 kts 221°
2026-04-30 20:38 51.93773 8.90220 630 ft 4 kts 131°
2026-04-30 20:38 51.93764 8.90243 628 ft 0 kts 125°
2026-04-30 20:38 51.93763 8.90244 628 ft 0 kts 123°